Wind_Speed
13 12 12 11 11 11 11 10 9 8 8 8 7 7 6 6 6 6 6 6 6 6 6 6 7 7 7 7 7 6 6 6 6 7 7 7 6 6 6 6 6 7 7
14 13 12 12 12 12 12 11 10 9 9 8 7 7 7 7 7 6 6 6 6 7 7 7 7 8 7 7 7 6 6 6 7 7 7 7 7 7 7 7 7 7 8
16 15 15 14 13 13 12 12 11 10 9 9 8 8 7 7 7 6 6 7 7 7 7 7 7 7 7 7 7 7 7 7 7 8 8 8 8 8 8 8 8 9 9
16 15 15 14 14 13 13 12 11 10 10 9 9 9 8 8 7 7 7 7 7 7 7 7 7 7 7 7 7 7 7 8 8 8 8 9 9 9 10 9 9 9 10
15 15 15 14 14 13 12 12 12 11 11 10 10 9 9 9 8 8 8 8 7 7 7 8 8 8 7 7 7 8 9 9 9 9 9 10 10 10 10 11 11 10 11
15 15 14 13 13 13 13 12 12 11 11 11 10 10 9 9 9 9 8 8 8 8 8 8 8 8 9 9 9 9 10 10 10 10 11 11 11 11 11 11 12 12 12
14 14 14 14 14 13 13 12 12 12 11 11 10 10 10 10 10 10 9 9 9 9 10 9 10 10 10 10 10 10 10 10 11 11 11 12 12 12 12 12 12 12 12
14 14 14 14 14 13 13 13 12 12 12 11 11 11 10 10 10 10 10 10 10 11 11 11 11 12 11 11 11 11 11 11 12 12 13 13 13 13 13 13 13 12 13
13 13 14 14 14 13 13 13 12 12 11 11 11 11 11 11 11 11 11 12 12 12 12 13 13 13 13 13 12 13 13 13 13 13 14 14 14 14 14 14 14 14 14
13 13 13 13 13 13 12 12 11 11 12 11 11 12 11 11 12 12 13 13 13 13 14 14 14 14 14 14 14 14 15 15 15 15 15 15 15 15 15 16 16 16 16
12 12 13 13 13 13 13 12 12 12 12 12 12 12 12 12 13 13 14 14 14 14 15 15 15 15 15 16 16 16 16 17 17 17 17 16 16 16 16 17 17 18 18
13 13 13 13 14 14 13 13 13 13 13 13 13 13 13 14 14 14 15 15 15 15 16 16 16 16 16 17 17 17 17 18 18 18 18 18 18 18 18 18 19 19 19
13 13 13 13 13 14 14 14 14 14 13 13 13 13 14 15 15 16 16 16 16 17 17 17 17 18 18 18 18 18 18 19 19 19 20 19 19 20 20 21 21 21 21
12 13 13 13 13 13 14 14 14 14 14 14 14 15 15 15 16 17 17 18 18 18 18 19 18 18 18 18 18 18 19 19 20 20 20 21 21 21 22 22 22 22 23
13 13 13 14 14 14 15 15 15 15 15 15 15 16 16 16 16 17 18 18 18 19 19 19 19 18 19 19 19 19 19 20 21 21 22 22 23 23 23 24 24 24 25
14 15 15 15 15 15 15 15 15 15 15 15 15 16 16 17 17 18 18 18 19 19 19 19 20 20 20 20 21 21 21 22 22 22 22 23 24 24 24 25 25 26 26
15 15 16 16 15 15 15 15 15 15 16 16 16 16 17 17 18 18 19 19 19 19 19 20 20 21 22 22 22 23 23 23 23 23 24 24 25 25 26 26 27 27 28
15 15 16 16 16 16 15 15 15 16 16 16 17 17 17 18 18 18 19 19 20 20 21 21 21 21 22 22 22 22 22 23 24 24 24 25 26 27 27 28 28 28 29
16 16 17 17 17 16 16 16 17 16 17 17 17 17 18 18 19 19 19 20 21 21 22 22 22 22 22 22 23 23 23 24 25 26 26 26 27 27 28 29 29 30 30
17 17 17 17 17 17 17 17 18 18 17 17 17 18 19 19 20 20 21 21 22 22 23 23 23 23 23 24 24 24 24 25 25 26 27 27 28 28 29 30 31 31 32
16 17 17 18 17 18 19 19 18 18 17 17 18 18 19 19 20 21 22 22 23 23 23 23 23 24 24 24 25 25 25 26 27 27 28 29 30 31 31 32 33 34 35
16 16 17 18 18 18 19 20 19 19 19 18 19 19 19 20 21 22 22 23 23 23 24 24 25 25 25 26 26 27 27 28 29 29 30 31 32 33 34 34 35 36 37
15 15 16 17 18 18 19 19 20 20 20 20 20 20 21 22 23 23 23 24 24 24 25 26 26 27 27 28 29 29 30 30 31 31 32 33 34 35 35 36 37 38 39
15 16 17 17 18 19 19 19 19 19 20 21 22 22 23 23 23 24 24 25 26 26 27 27 28 28 29 30 30 31 32 32 33 34 34 35 36 37 38 39 40 41 42
18 18 18 19 19 19 20 20 20 21 22 23 23 23 23 24 24 25 26 27 27 28 29 29 30 30 31 32 33 33 34 35 36 36 37 37 38 39 40 41 42 43 44
20 20 20 20 21 22 22 23 23 22 23 24 24 25 25 25 26 27 28 28 29 30 31 31 32 32 33 34 35 35 36 37 37 38 39 39 40 41 42 43 44 44 45
Wind_Direction
227 224 221 220 219 220 223 229 240 251 253 253 254 258 264 268 272 278 283 284 291 299 305 313 320 328 333 335 336 335 336 336 335 335 333 333 330 321 318 309 306 299 294
225 221 223 224 222 223 228 233 240 248 253 257 257 260 262 267 271 276 278 283 289 295 298 307 319 320 322 330 332 331 332 331 330 328 328 328 329 322 315 307 302 297 295
227 227 226 228 227 228 230 233 241 247 251 254 257 261 262 265 270 277 283 288 291 294 300 309 314 316 318 322 324 324 324 325 324 321 320 319 320 322 318 311 305 302 298
228 227 228 229 228 229 232 237 246 250 251 254 254 257 261 262 269 274 280 287 292 297 303 307 311 314 316 318 318 317 318 319 320 318 317 316 315 314 315 316 311 303 300
228 227 228 227 228 231 236 243 246 250 253 256 256 255 258 261 265 269 276 285 289 294 300 304 306 307 309 310 312 313 312 312 313 315 315 315 314 312 310 311 311 309 306
225 225 226 228 230 235 242 245 245 246 250 254 256 255 258 262 265 269 276 282 286 292 297 299 300 303 305 306 308 310 309 308 309 309 310 311 311 309 308 307 307 308 308
222 224 227 230 234 237 240 242 242 245 249 252 253 254 259 262 266 270 274 280 284 287 291 295 298 300 303 304 304 306 306 307 308 308 307 308 308 308 308 308 308 309 309
221 224 229 233 238 239 241 243 246 247 248 250 253 257 260 264 267 269 275 280 284 286 288 290 294 296 298 300 301 301 301 304 306 307 308 307 307 305 305 306 306 306 306
223 230 234 238 240 240 240 243 244 244 247 251 255 259 261 266 269 270 277 281 284 284 286 288 290 294 295 295 296 298 297 299 301 304 306 306 304 304 303 303 302 302 301
229 233 237 240 241 240 240 240 239 242 247 251 256 259 263 267 271 273 278 281 282 284 286 289 290 291 292 293 295 297 297 298 300 301 302 302 301 301 303 302 301 300 301
234 237 237 240 240 240 240 242 243 246 249 252 257 260 263 269 273 275 278 280 282 284 287 290 291 291 291 293 293 295 296 297 297 298 299 299 299 299 301 301 300 299 299
238 239 239 242 242 242 244 245 245 248 250 255 259 261 264 271 274 276 278 279 281 284 286 290 291 292 293 294 293 294 295 295 296 296 296 298 297 298 298 299 298 298 298
239 241 244 244 243 244 245 247 247 250 254 258 261 263 267 271 274 276 279 279 281 282 284 288 290 291 293 294 294 294 294 294 295 296 296 296 296 297 297 297 297 297 297
244 243 247 249 246 245 245 247 249 253 256 259 262 263 267 272 275 278 279 279 280 281 282 286 288 289 291 292 293 294 294 293 294 295 295 296 296 296 296 297 298 297 296
251 249 249 252 252 252 252 251 251 256 259 262 264 264 267 270 274 277 279 280 282 282 284 285 286 288 289 291 292 294 294 294 295 294 294 295 295 295 296 296 296 296 295
253 254 255 255 254 253 255 255 256 259 261 264 266 266 268 271 275 278 279 281 283 284 285 285 286 287 288 289 290 291 293 294 294 294 294 295 297 297 298 298 297 297 296
256 257 254 254 254 255 255 257 259 261 263 265 266 269 271 274 277 279 281 282 283 285 287 287 288 288 289 290 291 292 292 293 293 293 293 295 296 297 298 298 298 297 297
257 256 254 252 254 255 254 256 260 262 265 268 269 271 274 276 278 281 282 282 283 285 287 288 287 290 292 293 292 293 293 292 293 294 295 295 295 295 296 298 297 297 297
254 254 255 253 253 254 257 260 263 265 267 269 270 271 275 277 279 281 282 283 284 286 286 288 289 291 291 292 293 293 292 292 293 294 294 295 295 296 297 298 298 297 297
256 255 255 253 253 257 260 261 265 267 269 270 270 272 276 278 280 282 283 284 286 287 287 287 290 290 290 290 291 292 292 292 294 295 295 295 296 296 298 299 298 298 297
261 257 255 253 256 259 260 264 269 269 270 271 272 275 279 280 281 282 283 285 286 288 288 289 291 292 291 291 292 292 292 293 294 294 294 294 295 296 297 297 298 297 297
263 261 257 256 259 262 263 265 268 268 269 272 274 277 279 281 282 283 284 286 287 287 289 290 291 293 293 294 294 294 294 294 294 293 294 294 294 295 296 297 297 297 297
269 268 264 263 262 263 265 268 269 269 270 273 275 277 280 282 283 283 284 286 288 289 291 292 292 293 294 294 294 293 293 293 293 293 293 293 294 294 295 296 296 297 297
269 270 269 267 265 264 266 268 269 271 273 274 276 278 280 281 282 283 284 286 288 289 290 291 291 292 293 293 293 293 293 293 293 294 294 294 295 295 295 296 297 297 297
269 271 268 266 265 267 268 271 271 272 275 276 277 279 281 281 282 282 284 285 287 289 289 290 290 291 291 292 293 293 293 293 293 294 294 294 295 295 295 296 296 297 297
268 269 270 268 268 269 271 273 274 275 275 276 278 278 281 283 283 283 284 285 287 289 290 291 291 291 291 292 292 293 293 294 294 294 294 294 295 296 296 296 296 296 297
Height
5874 5875 5877 5878 5879 5881 5882 5883 5883 5884 5884 5885 5885 5886 5886 5886 5886 5885 5885 5885 5884 5884 5883 5882 5881 5880 5879 5878 5877 5876 5875 5874 5873 5872 5871 5870 5869 5867 5866 5866 5865 5864 5863
5871 5873 5875 5876 5877 5879 5880 5881 5882 5882 5883 5883 5884 5884 5884 5884 5884 5884 5884 5883 5883 5882 5882 5881 5880 5879 5878 5877 5876 5875 5874 5873 5872 5872 5870 5869 5868 5867 5865 5864 5863 5863 5862
5869 5871 5872 5874 5875 5877 5878 5879 5880 5880 5881 5881 5882 5882 5883 5883 5883 5883 5882 5882 5881 5881 5880 5880 5879 5878 5877 5876 5875 5874 5873 5872 5871 5870 5870 5868 5867 5866 5865 5863 5862 5861 5860
5867 5869 5870 5872 5873 5875 5876 5877 5877 5878 5879 5879 5880 5880 5881 5881 5881 5881 5881 5881 5880 5879 5879 5878 5877 5876 5876 5875 5874 5873 5872 5871 5870 5869 5868 5867 5866 5864 5863 5862 5861 5860 5858
5865 5866 5868 5869 5871 5872 5873 5874 5875 5876 5876 5877 5878 5878 5879 5879 5879 5879 5879 5879 5878 5878 5877 5876 5876 5875 5874 5873 5872 5871 5871 5869 5868 5867 5866 5865 5864 5863 5861 5860 5859 5858 5857
5862 5864 5865 5867 5868 5869 5871 5872 5872 5873 5874 5875 5875 5876 5876 5877 5877 5877 5877 5877 5877 5876 5876 5875 5874 5873 5873 5872 5871 5870 5869 5868 5866 5865 5864 5863 5862 5861 5859 5858 5857 5856 5854
5859 5861 5863 5865 5866 5867 5868 5869 5870 5871 5871 5872 5873 5873 5874 5874 5875 5875 5875 5875 5874 5874 5874 5873 5872 5872 5871 5870 5868 5868 5867 5865 5864 5863 5862 5861 5859 5858 5857 5856 5855 5853 5852
5857 5859 5861 5862 5863 5864 5865 5866 5867 5868 5869 5869 5870 5871 5871 5872 5872 5872 5872 5872 5872 5872 5871 5871 5870 5869 5868 5867 5866 5865 5864 5863 5862 5861 5859 5858 5857 5855 5854 5853 5852 5851 5850
5855 5857 5858 5859 5860 5861 5862 5863 5864 5865 5866 5867 5867 5868 5869 5869 5870 5870 5870 5870 5870 5869 5868 5868 5867 5866 5865 5864 5863 5862 5861 5860 5859 5858 5856 5855 5854 5852 5851 5850 5849 5848 5847
5853 5854 5855 5856 5858 5859 5860 5861 5861 5862 5863 5864 5865 5865 5866 5866 5867 5867 5867 5867 5866 5866 5865 5865 5864 5863 5862 5861 5860 5859 5858 5857 5856 5854 5853 5852 5851 5849 5848 5847 5846 5844 5843
5850 5851 5853 5854 5855 5856 5857 5858 5859 5859 5860 5861 5862 5862 5863 5863 5864 5864 5864 5863 5863 5863 5862 5861 5860 5859 5859 5858 5857 5856 5854 5853 5852 5851 5850 5848 5847 5846 5844 5843 5842 5840 5839
5848 5849 5850 5851 5852 5853 5854 5855 5856 5856 5857 5858 5859 5859 5860 5860 5860 5860 5860 5860 5860 5859 5859 5858 5857 5856 5855 5854 5853 5852 5850 5849 5848 5847 5846 5844 5843 5842 5840 5839 5837 5836 5834
5845 5846 5847 5848 5849 5850 5851 5852 5853 5853 5854 5855 5855 5856 5856 5857 5857 5857 5856 5856 5856 5855 5855 5854 5853 5852 5851 5850 5849 5847 5846 5845 5844 5843 5841 5840 5839 5837 5836 5834 5833 5831 5829
5842 5843 5844 5845 5846 5847 5848 5849 5849 5850 5851 5851 5852 5852 5853 5853 5853 5853 5853 5852 5852 5851 5851 5850 5849 5848 5847 5845 5844 5843 5842 5840 5839 5838 5836 5835 5834 5832 5831 5829 5827 5826 5824
5840 5841 5842 5842 5843 5844 5845 5845 5846 5847 5847 5848 5848 5849 5849 5849 5849 5849 5848 5848 5847 5847 5846 5845 5844 5843 5842 5841 5840 5838 5837 5836 5834 5833 5831 5830 5828 5827 5825 5823 5822 5820 5818
5837 5838 5838 5839 5840 5840 5841 5842 5842 5843 5844 5844 5844 5844 5844 5844 5844 5844 5844 5843 5843 5842 5841 5840 5839 5838 5837 5836 5835 5833 5832 5831 5829 5827 5826 5824 5823 5821 5819 5817 5815 5813 5811
5834 5834 5835 5836 5836 5837 5837 5838 5839 5839 5839 5840 5840 5840 5840 5840 5840 5840 5839 5839 5838 5837 5836 5835 5834 5833 5832 5831 5829 5828 5826 5825 5823 5822 5820 5819 5817 5815 5813 5811 5809 5806 5804
5830 5831 5831 5832 5833 5833 5834 5834 5834 5835 5835 5835 5835 5835 5835 5835 5835 5835 5834 5833 5833 5832 5831 5830 5829 5828 5826 5825 5824 5822 5820 5819 5817 5816 5814 5812 5810 5808 5806 5804 5802 5799 5796
5826 5827 5827 5828 5828 5829 5829 5830 5830 5830 5830 5830 5830 5831 5830 5830 5830 5829 5829 5828 5827 5826 5825 5824 5823 5822 5820 5819 5818 5816 5814 5813 5811 5809 5807 5806 5804 5802 5799 5797 5794 5791 5789
5822 5822 5822 5823 5824 5824 5825 5825 5825 5826 5826 5825 5825 5825 5825 5825 5824 5824 5823 5823 5822 5821 5819 5818 5817 5816 5814 5813 5811 5810 5808 5806 5804 5802 5800 5798 5796 5794 5791 5789 5786 5783 5781
5817 5817 5818 5819 5819 5820 5820 5820 5821 5821 5820 5820 5820 5820 5820 5819 5819 5818 5818 5817 5816 5815 5813 5812 5811 5809 5808 5806 5805 5803 5801 5799 5797 5795 5793 5791 5788 5786 5783 5780 5777 5774 5771
5813 5813 5814 5814 5814 5814 5815 5815 5816 5815 5815 5815 5815 5815 5814 5814 5813 5813 5812 5811 5810 5808 5807 5806 5804 5802 5801 5799 5797 5796 5794 5792 5790 5787 5785 5782 5780 5777 5774 5771 5768 5765 5761
5809 5809 5809 5809 5809 5809 5810 5810 5810 5810 5810 5810 5810 5809 5809 5808 5807 5806 5805 5804 5803 5802 5800 5799 5797 5795 5793 5792 5790 5788 5785 5783 5781 5778 5776 5773 5771 5768 5765 5761 5758 5754 5751
5804 5804 5804 5804 5804 5804 5804 5804 5804 5804 5804 5804 5804 5803 5803 5802 5801 5800 5799 5798 5796 5795 5793 5792 5790 5788 5786 5784 5782 5779 5777 5774 5772 5769 5766 5764 5761 5758 5754 5751 5747 5743 5739
5799 5798 5798 5799 5799 5799 5799 5799 5798 5798 5798 5798 5797 5797 5796 5795 5794 5793 5792 5790 5789 5787 5786 5784 5782 5780 5778 5775 5773 5770 5768 5765 5762 5759 5756 5753 5750 5747 5743 5739 5735 5731 5727
5793 5792 5792 5792 5793 5792 5792 5792 5792 5792 5791 5791 5790 5789 5789 5788 5786 5785 5784 5782 5781 5779 5777 5775 5773 5771 5768 5766 5763 5760 5757 5754 5752 5749 5745 5742 5738 5735 5731 5727 5723 5719 5714